Location: Unspecified
(41.5000°N, 0.0000°E)
Time: 00:38:09
(UTC+00:00)

Courier 1B Rocket - Pass Details

Date: 02 July 2019
Orbit: 920 x 1202 km, 28.2° (Epoch: 19 July)

Event Time Altitude Azimuth Distance (km) Brightness Sun altitude
Rises 01:05:40 0° 239° (WSW) 4,087 - -23.9°
Reaches altitude 10° 01:08:59 10° 228° (SW) 3,110 - -23.7°
Maximum altitude 01:15:18 28° 173° (S) 2,029 - -23.3°
Exits shadow 01:17:35 24° 146° (SE) 2,180 6.5 -23.2°
Drops below altitude 10° 01:21:22 10° 118° (ESE) 2,991 7.4 -23.0°
Sets 01:24:30 0° 107° (ESE) 3,905 8.2 -22.8°
